| time (UTC) | temp F | wind direction | speed MPH | gust MPH | rain 1hr in | rain 24hr in | rain mn in | humidity % | barometer mb |
| 20260904013535 | 50 | 0 | 0.0 | 1.0 | 0.03 | 0.04 | 0.04 | 93 | 1002.1 |
| 20260904013052 | 50 | 0 | 0.0 | 1.0 | 0.02 | 0.03 | 0.03 | 93 | 1002.2 |
| 20260904012536 | 50 | 0 | 0.0 | 0.0 | 0.02 | 0.03 | 0.03 | 93 | 1002.1 |
| 20260904012034 | 50 | 0 | 0.0 | 0.0 | 0.03 | 0.03 | 0.03 | 93 | 1002.1 |
| 20260904011556 | 50 | 0 | 0.0 | 0.0 | 0.03 | 0.03 | 0.03 | 93 | 1002.3 |
| 20260904011035 | 50 | 0 | 0.0 | 0.0 | 0.02 | 0.02 | 0.02 | 92 | 1002.3 |
| 20260904010538 | 50 | 0 | 0.0 | 0.0 | 0.02 | 0.02 | 0.02 | 92 | 1002.4 |
| 20260904010049 | 50 | 0 | 0.0 | 0.0 | 0.02 | 0.02 | 0.02 | 92 | 1002.4 |
| 20260904005533 | 51 | 0 | 0.0 | 4.0 | 0.02 | 0.02 | 0.02 | 92 | 1002.3 |
| 20260904005035 | 51 | 0 | 0.0 | 4.0 | 0.01 | 0.01 | 0.01 | 92 | 1002.3 |
| 20260904004552 | 51 | 342 | 2.0 | 4.0 | 0.01 | 0.01 | 0.01 | 92 | 1002.2 |
| 20260904004034 | 51 | 0 | 0.0 | 5.0 | 0.01 | 0.01 | 0.01 | 92 | 1002.3 |
| 20260904003538 | 51 | 0 | 0.0 | 5.0 | 0.01 | 0.01 | 0.01 | 92 | 1002.4 |
| 20260904003047 | 51 | 0 | 2.0 | 5.0 | 0.01 | 0.01 | 0.01 | 92 | 1002.6 |
| 20260904002531 | 51 | 331 | 0.0 | 4.0 | 0.00 | 0.00 | 0.00 | 92 | 1002.5 |
| 20260904002031 | 51 | 0 | 0.0 | 3.0 | 0.00 | 0.00 | 0.00 | 92 | 1002.6 |
| 20260904001546 | 51 | 0 | 0.0 | 4.0 | 0.00 | 0.00 | 0.00 | 92 | 1002.7 |
| 20260904001034 | 51 | 10 | 2.0 | 4.0 | 0.00 | 0.00 | 0.00 | 92 | 1002.7 |
| 20260904000534 | 51 | 358 | 2.0 | 4.0 | 0.00 | 0.00 | 0.00 | 93 | 1002.8 |
| 20260904000048 | 51 | 347 | 2.0 | 4.0 | 0.00 | 0.00 | 0.00 | 93 | 1002.9 |
| 20260903235534 | 51 | 339 | 2.0 | 4.0 | 0.00 | 0.00 | 0.00 | 93 | 1002.8 |
| 20260903235038 | 50 | 2 | 0.0 | 1.0 | 0.00 | 0.00 | 0.00 | 93 | 1002.9 |
| 20260903234548 | 50 | 0 | 0.0 | 0.0 | 0.00 | 0.00 | 0.00 | 93 | 1002.9 |
| 20260903234031 | 50 | 0 | 0.0 | 0.0 | 0.00 | 0.00 | 0.00 | 93 | 1002.9 |
| 20260903233535 | 50 | 0 | 0.0 | 0.0 | 0.00 | 0.00 | 0.00 | 93 | 1003.0 |
| 20260903233046 | 50 | 0 | 0.0 | 0.0 | 0.00 | 0.00 | 0.00 | 93 | 1003.1 |
| 20260903232530 | 50 | 0 | 0.0 | 0.0 | 0.00 | 0.00 | 0.00 | 92 | 1003.1 |
| 20260903232030 | 50 | 0 | 0.0 | 0.0 | 0.00 | 0.00 | 0.00 | 92 | 1003.0 |
| 20260903231604 | 50 | 0 | 0.0 | 0.0 | 0.00 | 0.00 | 0.00 | 92 | 1003.1 |
| 20260903231034 | 50 | 0 | 0.0 | 0.0 | 0.00 | 0.00 | 0.00 | 92 | 1003.1 |
| 20260903230532 | 51 | 0 | 0.0 | 0.0 | 0.00 | 0.00 | 0.00 | 92 | 1003.2 |
| 20260903230048 | 51 | 0 | 0.0 | 0.0 | 0.00 | 0.00 | 0.00 | 92 | 1003.2 |
| 20260903225534 | 51 | 0 | 0.0 | 0.0 | 0.00 | 0.00 | 0.00 | 92 | 1003.5 |
| 20260903225031 | 51 | 0 | 0.0 | 0.0 | 0.00 | 0.00 | 0.00 | 92 | 1003.3 |
| 20260903224545 | 51 | 0 | 0.0 | 0.0 | 0.00 | 0.00 | 0.00 | 92 | 1003.4 |
| 20260903224034 | 51 | 0 | 0.0 | 0.0 | 0.00 | 0.00 | 0.00 | 92 | 1003.5 |
| 20260903223531 | 51 | 0 | 0.0 | 0.0 | 0.00 | 0.00 | 0.00 | 92 | 1003.4 |
| 20260903223105 | 51 | 0 | 0.0 | 0.0 | 0.00 | 0.00 | 0.00 | 92 | 1003.3 |
| 20260903222530 | 51 | 0 | 0.0 | 0.0 | 0.00 | 0.00 | 0.00 | 91 | 1003.5 |
| 20260903222033 | 51 | 0 | 0.0 | 0.0 | 0.00 | 0.00 | 0.00 | 91 | 1003.5 |
| 20260903221550 | 51 | 0 | 0.0 | 0.0 | 0.00 | 0.00 | 0.00 | 91 | 1003.5 |
| 20260903221033 | 51 | 0 | 0.0 | 0.0 | 0.00 | 0.00 | 0.00 | 91 | 1003.5 |
| 20260903220534 | 51 | 0 | 0.0 | 0.0 | 0.00 | 0.00 | 0.00 | 91 | 1003.5 |
| 20260903215537 | 51 | 0 | 0.0 | 0.0 | 0.00 | 0.00 | 0.00 | 91 | 1003.6 |
| 20260903215030 | 51 | 0 | 0.0 | 0.0 | 0.00 | 0.00 | 0.00 | 91 | 1003.7 |
| 20260903214555 | 51 | 0 | 0.0 | 0.0 | 0.00 | 0.00 | 0.00 | 90 | 1003.7 |
| 20260903214033 | 51 | 0 | 0.0 | 0.0 | 0.00 | 0.00 | 0.00 | 90 | 1003.7 |
| 20260903213532 | 52 | 0 | 0.0 | 0.0 | 0.00 | 0.00 | 0.00 | 90 | 1003.7 |
| 20260903213051 | 51 | 0 | 0.0 | 0.0 | 0.00 | 0.00 | 0.00 | 90 | 1003.7 |
| 20260903212533 | 51 | 0 | 0.0 | 0.0 | 0.00 | 0.00 | 0.00 | 90 | 1003.8 |
| 20260903212035 | 51 | 0 | 0.0 | 0.0 | 0.00 | 0.00 | 0.00 | 89 | 1003.7 |
| 20260903211549 | 51 | 0 | 0.0 | 0.0 | 0.00 | 0.00 | 0.00 | 89 | 1003.8 |
| 20260903211033 | 51 | 0 | 0.0 | 0.0 | 0.00 | 0.00 | 0.00 | 89 | 1003.9 |
| 20260903210538 | 51 | 0 | 0.0 | 0.0 | 0.00 | 0.00 | 0.00 | 88 | 1003.9 |
| 20260903210046 | 52 | 0 | 0.0 | 0.0 | 0.00 | 0.00 | 0.00 | 88 | 1003.8 |
| 20260903205531 | 52 | 0 | 0.0 | 0.0 | 0.00 | 0.00 | 0.00 | 87 | 1003.8 |
| 20260903205031 | 52 | 0 | 0.0 | 0.0 | 0.00 | 0.00 | 0.00 | 87 | 1003.8 |
| 20260903204559 | 52 | 0 | 0.0 | 0.0 | 0.00 | 0.00 | 0.00 | 87 | 1003.9 |
| 20260903204030 | 52 | 0 | 0.0 | 0.0 | 0.00 | 0.00 | 0.00 | 86 | 1004.0 |
| 20260903203533 | 52 | 0 | 0.0 | 0.0 | 0.00 | 0.00 | 0.00 | 86 | 1004.0 |
| 20260903203048 | 52 | 0 | 0.0 | 0.0 | 0.00 | 0.00 | 0.00 | 86 | 1004.0 |
| 20260903202536 | 52 | 0 | 0.0 | 0.0 | 0.00 | 0.00 | 0.00 | 86 | 1004.0 |
| 20260903202034 | 52 | 0 | 0.0 | 0.0 | 0.00 | 0.00 | 0.00 | 85 | 1004.0 |
| 20260903201548 | 52 | 0 | 0.0 | 0.0 | 0.00 | 0.00 | 0.00 | 85 | 1004.0 |
| 20260903201037 | 52 | 0 | 0.0 | 0.0 | 0.00 | 0.00 | 0.00 | 85 | 1004.2 |
| 20260903200531 | 52 | 0 | 0.0 | 0.0 | 0.00 | 0.00 | 0.00 | 85 | 1004.4 |
| 20260903200054 | 52 | 0 | 0.0 | 0.0 | 0.00 | 0.00 | 0.00 | 84 | 1004.5 |
| 20260903195532 | 52 | 0 | 0.0 | 0.0 | 0.00 | 0.00 | 0.00 | 83 | 1004.5 |
| 20260903195034 | 53 | 0 | 0.0 | 0.0 | 0.00 | 0.00 | 0.00 | 83 | 1004.5 |
| 20260903194552 | 53 | 0 | 0.0 | 0.0 | 0.00 | 0.00 | 0.00 | 83 | 1004.5 |
| 20260903194033 | 53 | 0 | 0.0 | 0.0 | 0.00 | 0.00 | 0.00 | 82 | 1004.6 |
| 20260903193531 | 54 | 0 | 0.0 | 1.0 | 0.00 | 0.00 | 0.00 | 82 | 1004.5 |
| 20260903193048 | 54 | 0 | 0.0 | 1.0 | 0.00 | 0.00 | 0.00 | 82 | 1004.5 |
| 20260903192534 | 54 | 0 | 0.0 | 1.0 | 0.00 | 0.00 | 0.00 | 82 | 1004.5 |
| 20260903192033 | 54 | 94 | 0.0 | 1.0 | 0.00 | 0.00 | 0.00 | 82 | 1004.5 |
| 20260903191601 | 54 | 94 | 0.0 | 2.0 | 0.00 | 0.00 | 0.00 | 81 | 1004.5 |
| 20260903191032 | 54 | 0 | 0.0 | 2.0 | 0.00 | 0.00 | 0.00 | 81 | 1004.6 |
| 20260903190532 | 54 | 158 | 0.0 | 2.0 | 0.00 | 0.00 | 0.00 | 81 | 1004.4 |
| 20260903190053 | 54 | 160 | 0.0 | 2.0 | 0.00 | 0.00 | 0.00 | 80 | 1004.5 |
| 20260903185532 | 54 | 0 | 0.0 | 1.0 | 0.00 | 0.00 | 0.00 | 80 | 1004.5 |
| 20260903185032 | 54 | 158 | 0.0 | 1.0 | 0.00 | 0.00 | 0.00 | 79 | 1004.6 |
| 20260903184552 | 54 | 0 | 0.0 | 1.0 | 0.00 | 0.00 | 0.00 | 79 | 1004.7 |
| 20260903184032 | 54 | 0 | 0.0 | 1.0 | 0.00 | 0.00 | 0.00 | 78 | 1004.8 |
| 20260903183534 | 54 | 0 | 0.0 | 1.0 | 0.00 | 0.00 | 0.00 | 78 | 1004.8 |
| 20260903183108 | 54 | 91 | 0.0 | 1.0 | 0.00 | 0.00 | 0.00 | 77 | 1004.8 |
| 20260903182532 | 54 | 0 | 0.0 | 0.0 | 0.00 | 0.00 | 0.00 | 77 | 1004.8 |
| 20260903182033 | 54 | 0 | 0.0 | 0.0 | 0.00 | 0.00 | 0.00 | 76 | 1004.8 |
| 20260903181547 | 55 | 0 | 0.0 | 0.0 | 0.00 | 0.00 | 0.00 | 74 | 1004.9 |
| 20260903181031 | 55 | 0 | 0.0 | 1.0 | 0.00 | 0.00 | 0.00 | 74 | 1004.8 |
| 20260903180532 | 55 | 0 | 0.0 | 2.0 | 0.00 | 0.00 | 0.00 | 73 | 1004.9 |
| 20260903180054 | 55 | 0 | 0.0 | 2.0 | 0.00 | 0.00 | 0.00 | 72 | 1004.9 |
| 20260903175532 | 55 | 0 | 0.0 | 2.0 | 0.00 | 0.00 | 0.00 | 71 | 1005.0 |
| 20260903175034 | 56 | 160 | 0.0 | 2.0 | 0.00 | 0.00 | 0.00 | 70 | 1005.0 |
| 20260903174548 | 56 | 147 | 1.0 | 2.0 | 0.00 | 0.00 | 0.00 | 70 | 1005.0 |
| 20260903174032 | 56 | 176 | 0.0 | 2.0 | 0.00 | 0.00 | 0.00 | 70 | 1004.9 |
| 20260903173531 | 56 | 161 | 0.0 | 1.0 | 0.00 | 0.00 | 0.00 | 69 | 1004.9 |
| 20260903173107 | 56 | 0 | 0.0 | 1.0 | 0.00 | 0.00 | 0.00 | 68 | 1004.9 |
| 20260903172532 | 56 | 0 | 0.0 | 2.0 | 0.00 | 0.00 | 0.00 | 68 | 1004.9 |
| 20260903172031 | 56 | 0 | 0.0 | 4.0 | 0.00 | 0.00 | 0.00 | 66 | 1004.9 |
| 20260903171600 | 56 | 193 | 1.0 | 4.0 | 0.00 | 0.00 | 0.00 | 66 | 1004.9 |
| 20260903171032 | 57 | 161 | 1.0 | 4.0 | 0.00 | 0.00 | 0.00 | 65 | 1004.9 |
| 20260903170533 | 57 | 198 | 0.0 | 2.0 | 0.00 | 0.00 | 0.00 | 64 | 1004.9 |
| 20260903170048 | 57 | 0 | 0.0 | 2.0 | 0.00 | 0.00 | 0.00 | 64 | 1004.9 |
| 20260903165532 | 57 | 186 | 0.0 | 4.0 | 0.00 | 0.00 | 0.00 | 64 | 1005.0 |
| 20260903165033 | 57 | 0 | 0.0 | 4.0 | 0.00 | 0.00 | 0.00 | 63 | 1005.1 |
| 20260903164557 | 57 | 122 | 1.0 | 4.0 | 0.00 | 0.00 | 0.00 | 63 | 1005.1 |
| 20260903164032 | 57 | 209 | 1.0 | 4.0 | 0.00 | 0.00 | 0.00 | 63 | 1005.2 |
| 20260903163531 | 57 | 173 | 2.0 | 6.0 | 0.00 | 0.00 | 0.00 | 63 | 1005.2 |
| 20260903163052 | 58 | 153 | 0.0 | 6.0 | 0.00 | 0.00 | 0.00 | 62 | 1005.2 |
| 20260903162532 | 58 | 157 | 2.0 | 6.0 | 0.00 | 0.00 | 0.00 | 62 | 1005.2 |
| 20260903162031 | 58 | 164 | 1.0 | 6.0 | 0.00 | 0.00 | 0.00 | 62 | 1005.2 |
| 20260903161606 | 58 | 138 | 2.0 | 6.0 | 0.00 | 0.00 | 0.00 | 62 | 1005.3 |
| 20260903161034 | 58 | 155 | 2.0 | 5.0 | 0.00 | 0.00 | 0.00 | 61 | 1005.4 |
| 20260903160533 | 58 | 155 | 2.0 | 8.0 | 0.00 | 0.00 | 0.00 | 62 | 1005.5 |
| 20260903160055 | 58 | 160 | 4.0 | 8.0 | 0.00 | 0.00 | 0.00 | 61 | 1005.3 |
| 20260903155536 | 58 | 211 | 4.0 | 8.0 | 0.00 | 0.00 | 0.00 | 61 | 1005.4 |
| 20260903155031 | 59 | 150 | 2.0 | 7.0 | 0.00 | 0.00 | 0.00 | 62 | 1005.5 |
| 20260903154555 | 59 | 176 | 2.0 | 7.0 | 0.00 | 0.00 | 0.00 | 61 | 1005.5 |
| 20260903154032 | 59 | 152 | 4.0 | 11.0 | 0.00 | 0.00 | 0.00 | 60 | 1005.6 |
| 20260903153530 | 59 | 167 | 5.0 | 11.0 | 0.00 | 0.00 | 0.00 | 59 | 1005.6 |
| 20260903153059 | 59 | 169 | 6.0 | 9.0 | 0.00 | 0.00 | 0.00 | 59 | 1005.7 |
| 20260903152532 | 59 | 165 | 4.0 | 7.0 | 0.00 | 0.00 | 0.00 | 60 | 1005.7 |
| 20260903152032 | 60 | 148 | 3.0 | 7.0 | 0.00 | 0.00 | 0.00 | 60 | 1005.6 |
| 20260903151547 | 60 | 148 | 1.0 | 9.0 | 0.00 | 0.00 | 0.00 | 60 | 1005.5 |
| 20260903151034 | 60 | 153 | 3.0 | 9.0 | 0.00 | 0.00 | 0.00 | 60 | 1005.6 |
| 20260903150534 | 60 | 122 | 2.0 | 9.0 | 0.00 | 0.00 | 0.00 | 61 | 1005.7 |
| 20260903150054 | 60 | 160 | 3.0 | 9.0 | 0.00 | 0.00 | 0.00 | 59 | 1005.7 |
| 20260903145534 | 60 | 150 | 4.0 | 10.0 | 0.00 | 0.00 | 0.00 | 59 | 1005.7 |
| 20260903145033 | 61 | 122 | 3.0 | 10.0 | 0.00 | 0.00 | 0.00 | 59 | 1005.8 |
| 20260903144550 | 61 | 124 | 2.0 | 8.0 | 0.00 | 0.00 | 0.00 | 59 | 1005.8 |
| 20260903144032 | 61 | 170 | 4.0 | 10.0 | 0.00 | 0.00 | 0.00 | 58 | 1005.6 |
| 20260903143532 | 61 | 80 | 4.0 | 11.0 | 0.00 | 0.00 | 0.00 | 59 | 1005.6 |
| 20260903143046 | 61 | 91 | 6.0 | 11.0 | 0.00 | 0.00 | 0.00 | 57 | 1005.7 |
| 20260903142536 | 61 | 97 | 6.0 | 10.0 | 0.00 | 0.00 | 0.00 | 57 | 1005.8 |
| 20260903142032 | 62 | 145 | 4.0 | 9.0 | 0.00 | 0.00 | 0.00 | 57 | 1005.8 |
| 20260903141546 | 62 | 221 | 3.0 | 10.0 | 0.00 | 0.00 | 0.00 | 56 | 1005.7 |
| 20260903141031 | 62 | 69 | 3.0 | 10.0 | 0.00 | 0.00 | 0.00 | 54 | 1005.6 |
| 20260903140534 | 63 | 72 | 5.0 | 10.0 | 0.00 | 0.00 | 0.00 | 54 | 1005.6 |
| 20260903140047 | 63 | 155 | 2.0 | 7.0 | 0.00 | 0.00 | 0.00 | 54 | 1005.7 |
| 20260903135533 | 63 | 167 | 3.0 | 7.0 | 0.00 | 0.00 | 0.00 | 54 | 1005.6 |
| 20260903135031 | 65 | 187 | 3.0 | 9.0 | 0.00 | 0.00 | 0.00 | 52 | 1005.8 |
| 20260903134604 | 65 | 169 | 4.0 | 10.0 | 0.00 | 0.00 | 0.00 | 52 | 1005.6 |
| 20260903134030 | 65 | 101 | 4.0 | 10.0 | 0.00 | 0.00 | 0.00 | 49 | 1005.7 |
| 20260903133532 | 65 | 208 | 6.0 | 10.0 | 0.00 | 0.00 | 0.00 | 51 | 1005.7 |
| 20260903133051 | 65 | 68 | 4.0 | 9.0 | 0.00 | 0.00 | 0.00 | 49 | 1005.7 |
| 20260903132532 | 65 | 92 | 2.0 | 8.0 | 0.00 | 0.00 | 0.00 | 49 | 1005.8 |
| 20260903132031 | 65 | 134 | 3.0 | 7.0 | 0.00 | 0.00 | 0.00 | 51 | 1005.9 |
| 20260903131548 | 65 | 193 | 2.0 | 6.0 | 0.00 | 0.00 | 0.00 | 51 | 1005.9 |
| 20260903131032 | 65 | 117 | 3.0 | 11.0 | 0.00 | 0.00 | 0.00 | 50 | 1006.0 |
| 20260903130533 | 65 | 165 | 2.0 | 11.0 | 0.00 | 0.00 | 0.00 | 50 | 1006.0 |
| 20260903130047 | 65 | 122 | 3.0 | 9.0 | 0.00 | 0.00 | 0.00 | 49 | 1005.9 |
| 20260903125531 | 66 | 175 | 4.0 | 10.0 | 0.00 | 0.00 | 0.00 | 48 | 1006.0 |
| 20260903125032 | 66 | 112 | 4.0 | 10.0 | 0.00 | 0.00 | 0.00 | 49 | 1006.1 |
| 20260903124559 | 66 | 174 | 6.0 | 10.0 | 0.00 | 0.00 | 0.00 | 48 | 1006.2 |
| 20260903124031 | 65 | 180 | 2.0 | 7.0 | 0.00 | 0.00 | 0.00 | 50 | 1006.1 |
| 20260903123532 | 65 | 148 | 3.0 | 9.0 | 0.00 | 0.00 | 0.00 | 51 | 1006.1 |
| 20260903123048 | 64 | 140 | 3.0 | 9.0 | 0.00 | 0.00 | 0.00 | 50 | 1006.2 |
| 20260903122535 | 64 | 162 | 5.0 | 9.0 | 0.00 | 0.00 | 0.00 | 50 | 1006.3 |
| 20260903122032 | 63 | 124 | 3.0 | 8.0 | 0.00 | 0.00 | 0.00 | 51 | 1006.4 |
| 20260903121552 | 63 | 123 | 5.0 | 8.0 | 0.00 | 0.00 | 0.00 | 49 | 1006.5 |
| 20260903121035 | 64 | 155 | 3.0 | 8.0 | 0.00 | 0.00 | 0.00 | 51 | 1006.6 |
| 20260903120531 | 63 | 185 | 3.0 | 8.0 | 0.00 | 0.00 | 0.00 | 50 | 1006.5 |
| 20260903120056 | 64 | 117 | 2.0 | 5.0 | 0.00 | 0.00 | 0.00 | 49 | 1006.5 |
| 20260903115537 | 64 | 240 | 1.0 | 7.0 | 0.00 | 0.00 | 0.00 | 47 | 1006.5 |
| 20260903115031 | 64 | 96 | 2.0 | 7.0 | 0.00 | 0.00 | 0.00 | 49 | 1006.6 |
| 20260903114549 | 64 | 153 | 3.0 | 7.0 | 0.00 | 0.00 | 0.00 | 48 | 1006.7 |
| 20260903114030 | 64 | 120 | 4.0 | 7.0 | 0.00 | 0.00 | 0.00 | 48 | 1006.5 |
| 20260903113533 | 65 | 171 | 3.0 | 8.0 | 0.00 | 0.00 | 0.00 | 46 | 1006.6 |
| 20260903113047 | 64 | 113 | 3.0 | 9.0 | 0.00 | 0.00 | 0.00 | 51 | 1006.6 |
| 20260903112532 | 64 | 0 | 1.0 | 9.0 | 0.00 | 0.00 | 0.00 | 49 | 1006.6 |
| 20260903112033 | 64 | 218 | 4.0 | 9.0 | 0.00 | 0.00 | 0.00 | 49 | 1006.7 |
| 20260903111545 | 64 | 117 | 1.0 | 8.0 | 0.00 | 0.00 | 0.00 | 50 | 1006.8 |
| 20260903111032 | 63 | 184 | 4.0 | 8.0 | 0.00 | 0.00 | 0.00 | 50 | 1006.7 |
| 20260903110532 | 64 | 151 | 3.0 | 8.0 | 0.00 | 0.00 | 0.00 | 51 | 1006.8 |
| 20260903110050 | 64 | 216 | 3.0 | 8.0 | 0.00 | 0.00 | 0.00 | 52 | 1006.8 |
| 20260903105532 | 63 | 134 | 2.0 | 6.0 | 0.00 | 0.00 | 0.00 | 51 | 1006.9 |
| 20260903105033 | 62 | 128 | 3.0 | 7.0 | 0.00 | 0.00 | 0.00 | 52 | 1006.9 |
| 20260903104547 | 62 | 176 | 2.0 | 7.0 | 0.00 | 0.00 | 0.00 | 51 | 1007.0 |
| 20260903104034 | 63 | 136 | 4.0 | 7.0 | 0.00 | 0.00 | 0.00 | 51 | 1007.0 |
| 20260903103535 | 63 | 194 | 3.0 | 9.0 | 0.00 | 0.00 | 0.00 | 53 | 1007.0 |
| 20260903103048 | 63 | 223 | 4.0 | 9.0 | 0.00 | 0.00 | 0.00 | 51 | 1007.0 |
| 20260903102530 | 64 | 196 | 5.0 | 9.0 | 0.00 | 0.00 | 0.00 | 51 | 1007.0 |
| 20260903102032 | 63 | 170 | 2.0 | 4.0 | 0.00 | 0.00 | 0.00 | 52 | 1007.0 |
| 20260903101547 | 63 | 85 | 2.0 | 4.0 | 0.00 | 0.00 | 0.00 | 51 | 1007.1 |
| 20260903101031 | 62 | 114 | 1.0 | 3.0 | 0.00 | 0.00 | 0.00 | 57 | 1007.1 |
| 20260903100532 | 62 | 119 | 1.0 | 2.0 | 0.00 | 0.00 | 0.00 | 55 | 1007.2 |
| 20260903100046 | 62 | 115 | 1.0 | 3.0 | 0.00 | 0.00 | 0.00 | 53 | 1007.3 |
| 20260903095535 | 62 | 103 | 1.0 | 3.0 | 0.00 | 0.00 | 0.00 | 54 | 1007.2 |
| 20260903095031 | 62 | 126 | 1.0 | 4.0 | 0.00 | 0.00 | 0.00 | 55 | 1007.3 |
| 20260903094546 | 62 | 107 | 2.0 | 4.0 | 0.00 | 0.00 | 0.00 | 54 | 1007.3 |
| 20260903094033 | 62 | 146 | 2.0 | 4.0 | 0.00 | 0.00 | 0.00 | 55 | 1007.3 |
| 20260903093532 | 61 | 118 | 2.0 | 5.0 | 0.00 | 0.00 | 0.00 | 54 | 1007.3 |
| 20260903093051 | 61 | 150 | 0.0 | 5.0 | 0.00 | 0.00 | 0.00 | 56 | 1007.4 |
| 20260903092532 | 61 | 228 | 3.0 | 5.0 | 0.00 | 0.00 | 0.00 | 56 | 1007.4 |
| 20260903092031 | 61 | 232 | 1.0 | 3.0 | 0.00 | 0.00 | 0.00 | 58 | 1007.5 |
| 20260903091603 | 60 | 224 | 1.0 | 3.0 | 0.00 | 0.00 | 0.00 | 57 | 1007.5 |
| 20260903091031 | 60 | 242 | 1.0 | 3.0 | 0.00 | 0.00 | 0.00 | 58 | 1007.5 |
| 20260903090531 | 60 | 300 | 1.0 | 5.0 | 0.00 | 0.00 | 0.00 | 60 | 1007.7 |
| 20260903090053 | 60 | 335 | 0.0 | 5.0 | 0.00 | 0.00 | 0.00 | 59 | 1007.7 |
| 20260903085530 | 59 | 153 | 3.0 | 5.0 | 0.00 | 0.00 | 0.00 | 60 | 1007.7 |
| 20260903085032 | 58 | 5 | 1.0 | 4.0 | 0.00 | 0.00 | 0.00 | 62 | 1007.7 |
| 20260903084549 | 58 | 113 | 1.0 | 4.0 | 0.00 | 0.00 | 0.00 | 64 | 1007.7 |
| 20260903084031 | 57 | 233 | 1.0 | 4.0 | 0.00 | 0.00 | 0.00 | 64 | 1007.8 |
| 20260903083531 | 57 | 236 | 1.0 | 3.0 | 0.00 | 0.00 | 0.00 | 64 | 1007.9 |
| 20260903083050 | 56 | 167 | 0.0 | 1.0 | 0.00 | 0.00 | 0.00 | 68 | 1007.8 |
| 20260903082531 | 55 | 0 | 0.0 | 1.0 | 0.00 | 0.00 | 0.00 | 68 | 1007.9 |
| 20260903082031 | 54 | 130 | 0.0 | 1.0 | 0.00 | 0.00 | 0.00 | 70 | 1008.0 |
| 20260903081555 | 54 | 0 | 0.0 | 1.0 | 0.00 | 0.00 | 0.00 | 72 | 1008.0 |
| 20260903081034 | 54 | 0 | 0.0 | 1.0 | 0.00 | 0.00 | 0.00 | 70 | 1007.9 |
| 20260903080535 | 54 | 0 | 0.0 | 2.0 | 0.00 | 0.00 | 0.00 | 70 | 1008.0 |
| 20260903080059 | 55 | 0 | 0.0 | 3.0 | 0.00 | 0.00 | 0.00 | 69 | 1008.0 |
| 20260903075535 | 54 | 95 | 1.0 | 3.0 | 0.00 | 0.00 | 0.00 | 69 | 1008.0 |
| 20260903075037 | 54 | 123 | 2.0 | 3.0 | 0.00 | 0.00 | 0.00 | 70 | 1008.0 |
| 20260903074548 | 54 | 122 | 1.0 | 3.0 | 0.00 | 0.00 | 0.00 | 72 | 1008.1 |
| 20260903074036 | 53 | 115 | 1.0 | 2.0 | 0.00 | 0.00 | 0.00 | 72 | 1008.0 |
| 20260903073536 | 52 | 177 | 0.0 | 2.0 | 0.00 | 0.00 | 0.00 | 75 | 1008.0 |
| 20260903073112 | 51 | 167 | 0.0 | 0.0 | 0.00 | 0.00 | 0.00 | 75 | 1008.2 |
| 20260903072535 | 51 | 0 | 0.0 | 1.0 | 0.00 | 0.00 | 0.00 | 76 | 1008.2 |
| 20260903072036 | 50 | 0 | 0.0 | 2.0 | 0.00 | 0.00 | 0.00 | 76 | 1008.2 |
| 20260903071551 | 49 | 0 | 1.0 | 3.0 | 0.00 | 0.00 | 0.00 | 77 | 1008.2 |
| 20260903071034 | 49 | 127 | 1.0 | 3.0 | 0.00 | 0.00 | 0.00 | 77 | 1008.2 |
| 20260903070538 | 48 | 104 | 2.0 | 3.0 | 0.00 | 0.00 | 0.00 | 79 | 1008.2 |
| 20260903070048 | 48 | 129 | 1.0 | 3.0 | 0.00 | 0.00 | 0.00 | 81 | 1008.3 |
| 20260903065535 | 47 | 173 | 0.0 | 2.0 | 0.00 | 0.00 | 0.00 | 82 | 1008.4 |
| 20260903065035 | 47 | 0 | 1.0 | 3.0 | 0.00 | 0.00 | 0.00 | 82 | 1008.5 |
| 20260903064554 | 46 | 228 | 0.0 | 3.0 | 0.00 | 0.00 | 0.00 | 83 | 1008.3 |
| 20260903064034 | 46 | 0 | 0.0 | 2.0 | 0.00 | 0.00 | 0.00 | 85 | 1008.3 |
| 20260903063535 | 45 | 0 | 0.0 | 2.0 | 0.00 | 0.00 | 0.00 | 86 | 1008.3 |
| 20260903063104 | 44 | 145 | 0.0 | 1.0 | 0.00 | 0.00 | 0.00 | 87 | 1008.5 |
| 20260903062531 | 43 | 0 | 0.0 | 0.0 | 0.00 | 0.00 | 0.00 | 88 | 1008.5 |
| 20260903062035 | 43 | 0 | 0.0 | 0.0 | 0.00 | 0.00 | 0.00 | 88 | 1008.7 |
| 20260903061552 | 43 | 0 | 0.0 | 0.0 | 0.00 | 0.00 | 0.00 | 88 | 1008.6 |
| 20260903061034 | 43 | 0 | 0.0 | 0.0 | 0.00 | 0.00 | 0.00 | 88 | 1008.6 |
| 20260903060535 | 42 | 0 | 0.0 | 1.0 | 0.00 | 0.00 | 0.00 | 87 | 1008.6 |
| 20260903060049 | 42 | 0 | 0.0 | 1.0 | 0.00 | 0.00 | 0.00 | 87 | 1008.7 |
| 20260903055536 | 42 | 0 | 0.0 | 1.0 | 0.00 | 0.00 | 0.00 | 86 | 1008.7 |
| 20260903055034 | 42 | 0 | 0.0 | 2.0 | 0.00 | 0.00 | 0.00 | 86 | 1008.7 |
| 20260903054553 | 42 | 0 | 0.0 | 2.0 | 0.00 | 0.00 | 0.00 | 86 | 1008.7 |
| 20260903054037 | 42 | 213 | 0.0 | 1.0 | 0.00 | 0.00 | 0.00 | 86 | 1008.7 |
| 20260903053536 | 41 | 0 | 0.0 | 1.0 | 0.00 | 0.00 | 0.00 | 86 | 1008.8 |
| 20260903053049 | 41 | 153 | 0.0 | 1.0 | 0.00 | 0.00 | 0.00 | 87 | 1008.8 |
| 20260903052535 | 41 | 0 | 0.0 | 1.0 | 0.00 | 0.00 | 0.00 | 87 | 1008.8 |
| 20260903052035 | 41 | 0 | 0.0 | 2.0 | 0.00 | 0.00 | 0.00 | 87 | 1008.9 |
| 20260903051546 | 41 | 0 | 0.0 | 2.0 | 0.00 | 0.00 | 0.00 | 87 | 1008.8 |
| 20260903051038 | 40 | 0 | 0.0 | 2.0 | 0.00 | 0.00 | 0.00 | 88 | 1008.8 |
| 20260903050537 | 40 | 0 | 0.0 | 0.0 | 0.00 | 0.00 | 0.00 | 88 | 1008.8 |
| 20260903050055 | 40 | 0 | 0.0 | 0.0 | 0.00 | 0.00 | 0.00 | 87 | 1008.8 |
| 20260903045535 | 40 | 0 | 0.0 | 0.0 | 0.00 | 0.00 | 0.00 | 87 | 1008.8 |
| 20260903045037 | 41 | 0 | 0.0 | 1.0 | 0.00 | 0.00 | 0.00 | 88 | 1008.9 |
| 20260903044549 | 40 | 0 | 0.0 | 1.0 | 0.00 | 0.00 | 0.00 | 88 | 1008.8 |
| 20260903044037 | 40 | 0 | 0.0 | 0.0 | 0.00 | 0.00 | 0.00 | 88 | 1008.8 |
| 20260903043534 | 40 | 0 | 0.0 | 1.0 | 0.00 | 0.00 | 0.00 | 88 | 1008.8 |
| 20260903043101 | 40 | 0 | 0.0 | 2.0 | 0.00 | 0.00 | 0.00 | 88 | 1008.7 |
| 20260903042535 | 40 | 92 | 1.0 | 2.0 | 0.00 | 0.00 | 0.00 | 88 | 1008.7 |
| 20260903042035 | 40 | 0 | 0.0 | 2.0 | 0.00 | 0.00 | 0.00 | 87 | 1008.8 |
| 20260903041555 | 40 | 0 | 0.0 | 1.0 | 0.00 | 0.00 | 0.00 | 87 | 1008.9 |
| 20260903041034 | 40 | 0 | 0.0 | 2.0 | 0.00 | 0.00 | 0.00 | 86 | 1008.8 |
| 20260903040534 | 40 | 113 | 0.0 | 2.0 | 0.00 | 0.00 | 0.00 | 86 | 1009.0 |
| 20260903040052 | 41 | 103 | 0.0 | 2.0 | 0.00 | 0.00 | 0.00 | 85 | 1008.9 |
| 20260903035535 | 41 | 286 | 0.0 | 2.0 | 0.00 | 0.00 | 0.00 | 84 | 1008.7 |
| 20260903035035 | 41 | 0 | 0.0 | 1.0 | 0.00 | 0.00 | 0.00 | 83 | 1008.8 |
| 20260903034559 | 41 | 0 | 0.0 | 2.0 | 0.00 | 0.00 | 0.00 | 84 | 1008.8 |
| 20260903034035 | 41 | 97 | 1.0 | 2.0 | 0.00 | 0.00 | 0.00 | 84 | 1008.8 |
| 20260903033534 | 41 | 0 | 0.0 | 1.0 | 0.00 | 0.00 | 0.00 | 84 | 1008.8 |
| 20260903033058 | 42 | 0 | 0.0 | 2.0 | 0.00 | 0.00 | 0.00 | 84 | 1008.6 |
| 20260903032535 | 42 | 0 | 0.0 | 2.0 | 0.00 | 0.00 | 0.00 | 86 | 1008.6 |
| 20260903032037 | 41 | 0 | 0.0 | 1.0 | 0.00 | 0.00 | 0.00 | 86 | 1008.7 |
| 20260903031554 | 42 | 0 | 0.0 | 3.0 | 0.00 | 0.00 | 0.00 | 85 | 1008.7 |
| 20260903031034 | 42 | 0 | 0.0 | 3.0 | 0.00 | 0.00 | 0.00 | 85 | 1008.8 |
| 20260903030533 | 42 | 88 | 1.0 | 2.0 | 0.00 | 0.00 | 0.00 | 85 | 1008.8 |
| 20260903030103 | 41 | 0 | 1.0 | 2.0 | 0.00 | 0.00 | 0.00 | 84 | 1008.9 |
| 20260903025535 | 42 | 293 | 1.0 | 2.0 | 0.00 | 0.00 | 0.00 | 82 | 1008.8 |
| 20260903025035 | 42 | 0 | 0.0 | 1.0 | 0.00 | 0.00 | 0.00 | 82 | 1008.8 |
| 20260903024554 | 42 | 328 | 0.0 | 1.0 | 0.00 | 0.00 | 0.00 | 82 | 1008.7 |
| 20260903024034 | 42 | 0 | 0.0 | 0.0 | 0.00 | 0.00 | 0.00 | 83 | 1008.8 |
| 20260903023535 | 43 | 0 | 0.0 | 1.0 | 0.00 | 0.00 | 0.00 | 82 | 1008.8 |
| 20260903023107 | 43 | 0 | 0.0 | 1.0 | 0.00 | 0.00 | 0.00 | 83 | 1008.9 |
| 20260903022536 | 43 | 0 | 0.0 | 0.0 | 0.00 | 0.00 | 0.00 | 83 | 1008.9 |
| 20260903022038 | 43 | 0 | 0.0 | 1.0 | 0.00 | 0.00 | 0.00 | 82 | 1009.0 |
| 20260903021556 | 43 | 0 | 0.0 | 1.0 | 0.00 | 0.00 | 0.00 | 81 | 1009.0 |
| 20260903021035 | 44 | 0 | 0.0 | 1.0 | 0.00 | 0.00 | 0.00 | 81 | 1008.9 |
| 20260903020534 | 43 | 0 | 0.0 | 1.0 | 0.00 | 0.00 | 0.00 | 81 | 1008.9 |
| 20260903020054 | 43 | 0 | 0.0 | 1.0 | 0.00 | 0.00 | 0.00 | 81 | 1009.0 |
| 20260903015534 | 43 | 0 | 0.0 | 1.0 | 0.00 | 0.00 | 0.00 | 80 | 1009.1 |
| 20260903015035 | 43 | 0 | 0.0 | 1.0 | 0.00 | 0.00 | 0.00 | 80 | 1009.0 |
| 20260903014555 | 43 | 0 | 0.0 | 1.0 | 0.00 | 0.00 | 0.00 | 79 | 1009.1 |
| 20260903014038 | 44 | 0 | 0.0 | 1.0 | 0.00 | 0.00 | 0.00 | 78 | 1009.1 |